Location: D�derode
(51.8092°N, 10.1065°E)
Time: 05:55:04
(UTC+00:00)

Meteor 1-4 Rocket - Pass Details

Date: 01 December 2020
Orbit: 449 x 500 km, 81.2° (Epoch: 23 January)

Event Time Altitude Azimuth Distance (km) Brightness Sun altitude
Rises 15:57:20 0° 146° (SSE) 2,518 6.1 -6.8°
Reaches altitude 10° 16:00:10 10° 122° (ESE) 1,634 4.9 -7.1°
Maximum altitude 16:02:09 14° 88° (E) 1,380 4.3 -7.4°
Drops below altitude 10° 16:04:08 10° 54° (NE) 1,626 4.6 -7.7°
Enters shadow 16:04:14 10° 52° (NE) 1,649 4.6 -7.7°
